Hourly Data Report for October 27, 2015

All times are specified in Local Standard Time (LST). Add 1 hour to adjust for Daylight Saving Time where and when it is observed.

CHARLOTTETOWN A
PRINCE EDWARD ISLAND

46°17'21.000" N
63°07'09.000" W
48.50 m
8300301
71706
YYG

Download Data

Hourly Data (October 2015)
Hourly Data Report for October 27, 2015
Temp Definition
°C
Dew Point Temp Definition
°C
Rel Hum Definition
%
Wind Dir Definition
10's deg

Wind Spd Definition
km/h
Visibility Definition
km
Stn Press Definition
kPa
Hmdx Definition


Wind Chill Definition


Weather Definition


TIME
00:00 Legend Double Dagger 1.1 -4.8 65 28 15 24.1 102.36     LegendNANA
01:00 Legend Double Dagger 0.6 -5.2 65 27 15 24.1 102.43     LegendNANA
02:00 Legend Double Dagger -0.1 -5.9 65 27 16 24.1 102.43   -5 Mainly Clear
03:00 Legend Double Dagger -1.0 -5.6 71 26 11 24.1 102.43   -5 LegendNANA
04:00 Legend Double Dagger -1.1 -5.9 70 26 12 24.1 102.45   -5 LegendNANA
05:00 Legend Double Dagger -1.6 -6.0 72 26 10 24.1 102.46   -5 Mainly Clear
06:00 Legend Double Dagger -1.6 -6.2 71 26 10 24.1 102.49   -5 LegendNANA
07:00 Legend Double Dagger -1.2 -6.2 69 28 6 24.1 102.52   -3 LegendNANA
08:00 Legend Double Dagger -0.4 -5.8 67 26 11 24.1 102.58   -4 Mainly Clear
09:00 Legend Double Dagger 1.6 -5.4 60 29 18 24.1 102.62     LegendNANA
10:00 Legend Double Dagger 2.7 -5.0 57 28 17 24.1 102.64     LegendNANA
11:00 Legend Double Dagger 3.9 -5.3 51 27 22 24.1 102.62     Mainly Clear
12:00 Legend Double Dagger 4.2 -5.9 48 29 21 24.1 102.56     LegendNANA
13:00 Legend Double Dagger 4.9 -4.9 49 27 17 24.1 102.47     LegendNANA
14:00 Legend Double Dagger 5.1 -4.5 50 26 17 24.1 102.43     Mainly Clear
15:00 Legend Double Dagger 5.4 -4.7 48 26 21 24.1 102.39     LegendNANA
16:00 Legend Double Dagger 5.3 -4.6 49 26 22 24.1 102.37     LegendNANA
17:00 Legend Double Dagger 4.3 -4.0 55 26 11 24.1 102.37     Mainly Clear
18:00 Legend Double Dagger 3.4 -3.9 59 25 10 24.1 102.37     LegendNANA
19:00 Legend Double Dagger 3.4 -3.2 62 25 12 24.1 102.39     LegendNANA
20:00 Legend Double Dagger 4.2 -2.9 60 24 16 24.1 102.40     Mainly Clear
21:00 Legend Double Dagger 4.1 -2.3 63 24 18 24.1 102.40     LegendNANA
22:00 Legend Double Dagger 4.8 -2.8 58 24 18 24.1 102.38     LegendNANA
23:00 Legend Double Dagger 5.3 -2.8 56 25 23 24.1 102.41     Mostly Cloudy

Notes on Data Quality.

Legend

  • E = Estimated
  • M = Missing
  • NA = Not Available
  • ‡ = Partner data that is not subject to review by the National Climate Archives
Date modified: